Regional Weather Roundup
Issued by NWS Green Bay, WI

Home | Current Version | Previous Version | Graphics & Text | Print | Product List | Glossary Off
Versions: 1 2 3 4 5 6 7 8 9 10 11 12 13 14 15 16 17 18 19 20 21 22 23 24 25 26 27 28 29 30 31 32 33 34 35 36 37 38 39 40 41 42 43 44 45 46 47 48 49 50

000
ASUS43 KGRB 291310
RWRGRB

NORTH-CENTRAL AND NORTHEAST WISCONSIN REGIONAL WEATHER ROUNDUP
NATIONAL WEATHER SERVICE GREEN BAY WI
800 AM CDT TUE JUL 29 2014

WIZ005-009-010>012-018-019-291400-
NORTH CENTRAL WISCONSIN

CITY           SKY/WX    TMP DP  RH WIND       PRES   REMARKS
IRONWOOD       PTSUNNY   57  55  94 W7        30.04S
MANITOWISH WTR CLOUDY    56  55  95 NW5       30.06S
ARBOR VITAE    PTSUNNY   59  56  89 NW5       30.06S
EAGLE RIVER    MOSUNNY   57  56  97 NW7       30.05R
LAND O LAKES   MOSUNNY   59  55  85 NW7       30.06R
RHINELANDER    CLOUDY    56  53  90 NW6       30.07R
PHILLIPS       PTSUNNY   55  53  93 NW3       30.08S
ANTIGO         MOSUNNY   57  54  89 NW8       30.06S
TOMAHAWK       CLOUDY    54  53  97 CALM      30.07S
MERRILL        CLOUDY    57  55  92 CALM      30.07R
$$

WIZ013-073-291400-
NORTHEAST WISCONSIN

CITY           SKY/WX    TMP DP  RH WIND       PRES   REMARKS
IRON MOUNTAIN  MOSUNNY   59  52  77 NW8       30.00R
MARINETTE      MOSUNNY   61  54  77 NW7       30.00R
OCONTO         PTSUNNY   60  55  83 NW5       30.01S
$$

WIZ017-030-035>037-045-291400-
CENTRAL WISCONSIN

CITY           SKY/WX    TMP DP  RH WIND       PRES   REMARKS
MEDFORD        MOSUNNY   57  55  94 CALM      30.08S
WAUSAU         CLOUDY    58  54  86 NW6       30.05S
MOSINEE        PTSUNNY   57  57 100 NW7       30.07R
MARSHFIELD     MOSUNNY   61  56  83 NW9       30.07R
WISC RAPIDS    MOSUNNY   60  55  83 NW5       30.08R
STEVENS POINT  PTSUNNY   58  54  85 NW5       30.07R
WAUPACA        CLOUDY    63  55  75 W5        30.04S
SHAWANO        SUNNY     61  55  79 CALM      30.04R
CLINTONVILLE   SUNNY     61  52  72 NW6       30.04R
$$

WIZ038-039-048-051-291400-
FOX VALLEY

CITY           SKY/WX    TMP DP  RH WIND       PRES   REMARKS
NWS GREEN BAY  PTSUNNY   62  56  80 N5        30.02S
APPLETON       PTSUNNY   61  55  82 NW8       30.04R
OSHKOSH        MOSUNNY   62  56  80 NW5       30.04R
FOND DU LAC    MOSUNNY   61  55  81 NW6       30.05R
$$

WIZ022-050-052-291400-
EAST CENTRAL WISCONSIN

CITY           SKY/WX    TMP DP  RH WIND       PRES   REMARKS
STURGEON BAY   MOSUNNY   61  54  77 NW9       30.02R
MANITOWOC      PTSUNNY   63  56  78 NW8       30.02R
SHEBOYGAN      PTSUNNY   61  56  83 NW9       30.02R
$$

LMZ563-521-522-541>543-291400-
LAKESHORE

STATION/POSITION TIME  TEMP    WIND        PRES    VSBY  WAVE
                       AIR SEA DIR/SP/G                  HT/PER
                 (UTC) (F)     (DEG/KT/KT) (MB)    (MI)  (FT/S)
SHEBOYGAN LKSHOR 1300   63     290/  8/  9 1016.7R
KEWAUNEE LKSHORE 1300   60     300/  7/ 10 1016.8S
ALGOMA MARINA    1200          330/  5/  7   N/A
TWO RIVERS CG    1200   62 61                N/A       6   1
NORTHPORT PIER   1300   61     320/ 11/ 13 1015.2S
N MID LAKE BUOY  1300   56 51  300/  8/  8 1014.6R         0
S GREEN BAY BUOY 1200   61 66  310/ 12     1016.7R
SISTER BAY LKSHO 1200   63     360/ 14/ 15   N/A
STURGEON BAY CG  1200   60 48  310/  6     1015.8      6   1
CHAMBERS ISLAND  1300   61     300/  5/ 11 1015.6S
MENOMINEE LKSHOR 1300   60     300/  9/ 12 1016.4S
$$


USA.gov is the U.S. government's official web portal to all federal, state and local government web resources and services.